Regional Weather Roundup
Issued by NWS

Home | Current Version | Previous Version | Text Only | Print | Product List | Glossary On
Versions: 1 2 3 4 5 6 7 8 9 10 11 12 13 14 15 16 17 18 19 20 21 22 23 24 25 26 27 28 29 30 31 32 33 34 35 36 37 38 39 40 41 42 43 44 45 46 47 48 49 50
000
ASUS44 KOUN 301310
RWROK

WEATHER ROUNDUP FOR OKLAHOMA
NATIONAL WEATHER SERVICE NORMAN OK
800 AM CDT THU JUL 30 2015

NOTE: "FAIR" INDICATES FEW OR NO CLOUDS BELOW 12,000 FEET WITH NO
      SIGNIFICANT WEATHER AND/OR OBSTRUCTIONS TO VISIBILITY.

OKZ001>007-009>012-014-015-017-301400-
NORTHWEST OKLAHOMA AND THE PANHANDLE

CITY           SKY/WX    TMP DP  RH WIND       PRES   REMARKS
GAGE           CLOUDY    73  70  90 N6        30.20R
GUYMON         CLOUDY    69  66  90 SW6       30.28R
ENID/WOODRING  PTSUNNY   75  72  88 E5          N/A
$$

OKZ016-021>023-033>039-044-045-301400-
SOUTHWEST OKLAHOMA

CITY           SKY/WX    TMP DP  RH WIND       PRES   REMARKS
LAWTON/REGL    SUNNY     79  67  66 NE3       30.11R
LAWTON/FT SILL SUNNY     78  68  72 E3        30.10R
FREDERICK      SUNNY     78  68  71 NE8       30.08R
CLINTON        SUNNY     76  70  82 SE6       30.16R
HOBART         MOSUNNY   75  71  87 E6        30.13R
ALTUS AFB      SUNNY     80  66  62 NE5       30.11R
$$

OKZ018>020-024>031-301400-
CENTRAL OKLAHOMA

CITY           SKY/WX    TMP DP  RH WIND       PRES   REMARKS
OKLAHOMA CITY  MOSUNNY   79  75  87 SW3       30.14R
OKC/WILEY POST SUNNY     79  74  84 SE7       30.13R
OKC/TINKER AFB SUNNY     77  74  90 E5        30.12R
STILLWATER     MOSUNNY   77  71  82 E6        30.13R
GUTHRIE        SUNNY     78  73  84 SE8       30.12R
$$

OKZ008-013-054>072-301400-
NORTHEAST OKLAHOMA

CITY           SKY/WX    TMP DP  RH WIND       PRES   REMARKS
TULSA          MOSUNNY   79  72  79 NE6       30.11R
TULSA/JONES    SUNNY     81  73  76 NE5       30.11R
PONCA CITY     CLOUDY    77  69  76 E8        30.13R
MUSKOGEE       SUNNY     80  75  84 SE3       30.12R
$$

OKZ032-040>043-046>053-073>077-301400-
SOUTH CENTRAL/SOUTHEAST OKLAHOMA

CITY           SKY/WX    TMP DP  RH WIND       PRES   REMARKS
ARDMORE/DWNTWN SUNNY     79  68  69 CALM      30.09S
MCALESTER      MOSUNNY   82  75  79 CALM      30.11R
$$



USA.gov is the U.S. government's official web portal to all federal, state and local government web resources and services.